User: anonymous   Login
Location: Unspecified
(0.0000°N, 0.0000°E)
Time: 16:14:40
(UTC+00:00)
Language:

AO-27 - Orbit

View from above orbital plane
View from above orbital plane
View from above satellite
View from above satellite

Ground track
Ground track

The orbit data is extracted from the following two-line orbital elements,

1 22825U 93061C   18260.50839342  .00000003  00000-0  19114-4 0  9992
2 22825  98.8726 238.3408 0009509  78.9676 281.2575 14.30039360302762
Epoch (UTC): 17 September 2018 12:12:05
Eccentricity: 0.0009509
inclination: 98.8726°
perigee height: 785 km
apogee height: 798 km
right ascension of ascending node: 238.3408°
argument of perigee: 78.9676°
revolutions per day: 14.30039360
mean anomaly at epoch: 281.2575°
orbit number at epoch: 30276

The dashed part of the orbit path shows where the satellite is in the earth's shadow,  

DLR